Simultaneous Nadir Overpasses (SNOs) Predictions

Prediction of SNOs between FY3D and AQUA Satellite Orbit:

Table of predicted SNOs for the next 14.0 days since TLE Epoch: 7/18/2020
Index Date (FY3D) Time (FY3D) Lat,Lon (FY3D) SZA (FY3D ) Date (AQUA) Time (AQUA) Lat,Lon (AQUA) SZA (AQUA ) Distance(km) Time Diff (sec)
1 07/20/2020 14:52:33 -60.44, -4.75 86.12 07/20/2020 14:53:14 -60.45, -4.72 86.17 1.44 41
2 07/20/2020 15:41:35 65.99, 167.44 88.21 07/20/2020 15:41:02 66.00, 167.47 88.24 1.44 33
3 07/23/2020 07:09:04 -60.00, 110.85 85.16 07/23/2020 07:09:51 -60.00, 110.86 85.22 0.61 47
4 07/23/2020 07:58:05 65.62, -77.04 89.12 07/23/2020 07:57:38 65.62, -77.02 89.14 0.93 27
5 07/25/2020 23:25:33 -59.62,-133.51 84.22 07/25/2020 23:26:26 -59.61,-133.52 84.28 0.46 53
6 07/26/2020 00:14:32 65.35, 38.60 89.95 07/26/2020 00:14:11 65.35, 38.60 89.97 0.12 21
7 07/28/2020 15:42:02 -59.28, -17.83 83.31 07/28/2020 15:43:01 -59.28, -17.86 83.36 1.74 59
8 07/28/2020 16:30:59 65.14, 154.30 90.76 07/28/2020 16:30:44 65.13, 154.28 90.78 1.02 15
9 07/31/2020 07:58:56 -57.54, 96.95 80.95 07/31/2020 08:00:00 -57.54, 96.97 81.04 0.82 64
10 07/31/2020 08:47:46 63.82, -91.04 92.73 07/31/2020 08:47:36 63.83, -91.00 92.72 2.15 10
